ECMWFNIL_700_spd_057.txt.gz
Wind_Speed
29 29 30 30 29 28 26 25 26 27 25 23 23 24 25 24 21 20 19 18 18 17 16 16 16 17 18 17 17 16 17 17 17 17 17 16 16 16 16 17 16 16
30 30 32 32 33 33 32 31 31 31 30 26 24 23 23 22 20 20 20 19 19 17 16 17 16 17 17 18 18 18 18 17 17 17 17 17 17 17 16 15 15 15
29 31 32 33 34 34 33 31 30 30 32 30 26 22 22 22 20 20 21 21 21 19 19 18 17 17 18 19 20 20 19 18 18 18 18 18 17 17 16 15 15 15
26 28 29 30 31 31 29 27 24 24 27 29 25 21 22 22 20 20 21 22 21 21 20 18 17 18 19 19 19 19 18 17 17 18 17 18 18 17 16 16 16 16
20 22 23 25 27 28 27 25 22 20 24 27 22 20 22 21 20 20 21 21 21 21 20 18 18 18 18 17 17 17 16 15 16 16 16 17 17 17 17 17 17 17
16 19 20 20 22 24 23 22 22 21 23 25 22 21 22 20 18 20 20 21 21 20 19 18 18 17 17 16 16 16 16 15 15 15 15 15 16 16 17 17 18 18
18 21 22 22 20 19 21 21 21 22 23 24 22 22 21 19 18 19 20 21 21 19 17 17 16 16 16 17 16 15 15 15 15 15 15 15 15 15 16 17 18 18
21 24 25 25 22 19 18 20 21 22 24 25 23 22 20 18 17 18 19 20 19 17 15 16 16 16 17 17 17 15 15 15 15 15 15 15 15 15 15 17 18 19
23 26 28 27 26 23 19 18 20 23 25 26 24 22 20 18 17 17 18 19 18 16 15 16 17 17 17 18 18 17 16 16 16 16 16 16 16 16 16 16 17 18
24 26 28 27 27 28 23 17 20 23 26 28 26 22 19 18 18 18 18 18 17 15 15 17 17 17 18 19 19 18 17 17 17 17 17 17 17 17 17 17 17 17
24 25 26 26 26 28 27 19 20 24 28 29 26 22 18 17 17 19 19 18 17 16 16 18 18 19 20 20 20 20 19 18 17 17 17 17 17 18 18 18 18 18
22 23 24 24 25 27 26 20 20 24 28 29 25 20 18 17 18 19 20 18 17 17 17 19 20 20 21 22 22 22 21 20 18 18 17 17 17 18 18 18 18 18
20 21 22 23 23 24 22 16 16 21 25 25 22 20 17 17 19 20 20 19 18 18 18 19 20 21 22 22 22 23 23 21 20 19 18 17 17 18 18 18 19 19
18 19 20 20 20 22 18 13 13 18 23 23 20 19 18 19 20 20 20 20 19 18 18 19 20 21 21 21 21 22 23 22 21 20 19 18 17 17 17 18 19 18
18 18 18 18 16 20 18 13 13 13 17 21 20 19 20 21 21 21 21 21 20 20 19 19 20 21 20 20 20 21 22 22 21 19 18 17 17 17 17 18 18 17
18 18 17 18 15 15 19 14 14 14 15 18 19 20 22 22 22 22 22 22 22 21 20 20 21 21 20 20 20 21 21 21 20 19 18 17 17 17 17 17 18 17
19 18 16 17 17 13 14 15 13 18 19 17 18 20 21 21 22 23 23 22 22 22 22 22 22 21 21 21 20 21 21 21 20 19 19 18 18 18 18 18 17 17
22 19 16 16 17 17 15 13 13 15 18 19 19 20 21 21 22 23 23 23 22 23 24 24 23 22 22 21 21 21 21 21 20 20 19 19 19 19 18 18 17 17
23 22 19 17 17 18 20 18 15 13 15 19 22 21 21 21 22 23 24 24 25 25 26 26 25 23 23 23 22 22 21 21 20 20 20 20 19 19 19 18 18 17
22 23 22 19 17 18 19 22 22 19 18 20 22 22 22 22 22 23 25 26 28 28 28 28 27 25 24 24 24 23 22 22 21 21 20 20 20 19 19 19 18 18
20 22 22 21 19 18 19 20 23 25 25 24 24 24 24 24 24 25 26 27 30 32 31 30 29 28 26 25 25 25 24 23 22 22 21 20 20 20 19 19 18 18
18 19 21 21 20 19 20 20 22 24 27 29 29 28 28 27 27 27 27 29 31 32 33 33 32 30 29 27 27 28 27 25 24 23 22 21 21 21 21 20 19 19
18 17 18 19 19 19 20 20 22 22 23 27 29 31 31 30 30 30 30 32 32 31 32 35 36 34 33 31 30 30 29 27 26 25 23 22 22 22 22 21 21 21
19 17 17 17 17 18 18 19 20 21 21 22 25 28 29 29 29 29 30 32 34 34 34 35 36 37 36 35 33 31 30 29 28 27 26 24 24 24 23 23 22 22
18 17 17 16 16 16 15 16 16 18 18 19 21 24 26 26 28 28 29 30 32 34 36 37 37 37 38 38 36 34 33 32 31 30 29 27 25 24 24 23 22 22
18 18 17 16 16 16 14 14 14 14 15 15 17 19 22 24 25 26 27 28 28 30 34 37 38 39 39 40 39 37 35 34 34 33 32 29 26 25 24 24 23 23

ECMWFNIL_700_spd_060.txt.gz
Wind_Speed
28 29 29 29 29 28 28 28 29 30 31 31 30 30 28 27 26 25 22 21 21 22 21 20 22 21 18 19 19 17 17 18 19 20 20 19 19 19 19 18 18 18
24 25 26 26 27 27 28 29 31 32 33 34 33 32 30 28 27 27 25 22 21 22 22 20 21 21 20 19 20 18 18 18 19 20 20 20 19 18 17 17 18 18
19 20 20 20 20 21 22 26 29 32 33 32 31 29 28 26 27 28 27 24 22 22 21 20 20 20 20 20 20 19 18 17 18 19 20 19 17 16 16 17 18 19
17 16 16 16 16 18 19 21 25 29 32 30 28 27 26 25 28 29 28 26 24 22 20 20 21 21 21 21 19 17 17 18 18 19 19 18 17 16 17 19 19 19
16 15 16 17 18 20 20 21 22 25 29 29 28 27 25 25 27 28 28 26 24 22 20 20 21 21 21 20 18 17 18 19 19 19 18 18 18 18 18 19 20 19
17 17 18 19 20 21 21 21 22 24 26 28 27 26 25 24 25 26 26 25 24 22 20 20 21 21 20 19 18 18 18 18 18 18 19 19 19 19 18 19 19 19
20 20 21 21 21 21 21 21 23 24 25 26 27 25 23 23 25 25 24 24 25 23 21 20 20 19 19 19 18 18 17 17 17 18 18 19 18 18 17 18 18 18
22 22 22 22 21 22 22 22 24 26 27 26 27 26 23 24 26 25 23 24 26 24 23 21 18 17 18 18 18 18 17 16 16 16 17 18 18 18 17 17 17 18
22 22 22 22 22 23 22 22 25 28 29 27 27 27 26 27 27 25 24 24 25 23 21 19 16 16 18 18 18 18 16 15 16 16 17 18 18 18 18 18 18 18
21 21 21 21 22 22 23 22 25 28 29 27 26 28 29 30 28 26 25 25 24 23 20 17 15 17 18 18 18 17 16 16 16 17 18 18 19 19 19 19 19 18
20 20 20 21 21 22 21 21 24 28 30 27 25 28 31 31 28 25 24 24 25 23 21 19 17 18 18 18 18 17 16 16 16 17 18 19 19 20 20 20 20 19
19 19 20 20 21 22 20 20 23 27 30 28 24 26 29 29 27 24 22 23 23 23 22 21 19 18 18 18 16 15 15 15 16 17 19 19 20 21 21 21 21 20
19 19 20 20 21 21 19 19 22 24 28 28 21 23 27 28 27 24 22 21 22 23 23 22 22 20 19 18 15 14 14 14 16 18 19 20 21 21 21 21 22 22
20 20 20 20 21 20 18 19 20 21 25 27 19 20 25 27 26 23 21 21 21 21 21 22 23 22 20 17 14 13 13 14 16 18 20 21 21 21 21 21 22 22
21 20 20 19 19 20 19 19 20 19 22 26 20 18 22 25 25 21 19 20 21 20 19 20 20 19 18 16 13 12 13 14 16 18 20 20 21 21 21 21 22 22
22 21 20 19 17 18 19 18 19 18 18 23 21 15 18 20 21 20 19 19 21 22 21 19 18 17 17 15 14 13 13 14 16 18 19 20 20 21 21 21 22 22
21 21 21 20 18 17 18 18 18 19 16 18 20 14 15 18 19 21 22 21 22 24 23 21 20 20 18 16 14 14 14 14 15 17 18 19 20 21 21 21 22 22
21 21 21 21 19 17 17 17 18 19 19 17 17 16 14 17 20 21 22 22 23 24 23 22 22 19 18 16 16 15 15 15 16 17 18 18 19 20 21 21 21 21
21 21 21 21 21 19 16 16 17 19 20 20 17 16 15 16 19 21 22 24 24 25 24 23 21 18 17 18 18 17 17 16 16 17 18 18 19 20 21 21 21 22
20 21 21 22 22 21 18 16 17 17 19 20 21 20 17 16 16 19 22 24 25 26 27 25 22 20 20 20 20 20 19 18 17 18 18 19 20 20 21 21 22 22
20 20 20 20 22 22 21 18 17 17 18 19 21 23 23 20 19 19 21 23 24 26 27 27 25 24 23 24 24 23 22 21 20 18 19 20 20 21 22 22 22 23
19 19 19 18 19 20 21 20 18 17 17 17 19 22 24 26 25 24 25 25 26 26 27 28 29 27 26 26 26 25 24 24 22 20 20 21 21 22 22 22 23 24
18 18 17 17 17 17 18 19 19 18 18 18 17 18 21 25 29 29 30 30 30 29 29 29 29 29 29 29 28 28 27 27 25 23 22 22 22 22 23 23 24 24
17 17 17 16 16 16 15 16 16 16 17 18 18 17 17 20 24 28 30 32 33 32 31 31 30 30 31 32 32 31 31 30 28 27 24 23 24 25 25 25 26 26
18 18 18 17 16 15 15 15 14 14 13 14 16 17 17 16 18 22 26 29 31 32 33 33 32 32 33 34 34 34 34 33 32 31 29 27 26 28 28 28 28 28
20 20 20 19 18 16 15 15 15 14 12 11 11 13 15 16 17 18 21 24 26 28 29 31 33 33 34 35 36 37 37 37 36 35 35 33 31 30 30 30 30 29

ECMWFNIL_700_spd_063.txt.gz
Wind_Speed
21 20 20 21 21 22 23 23 23 23 24 26 28 31 33 33 34 33 33 33 33 32 31 30 28 25 23 22 21 21 20 20 20 19 18 17 17 18 18 17 17 17
18 18 18 18 19 19 20 20 20 22 23 25 27 29 31 33 33 33 34 35 35 34 33 32 28 24 24 24 23 22 21 20 20 19 19 19 18 19 17 16 16 17
18 18 17 17 17 18 18 19 21 24 25 25 26 28 30 31 32 31 33 35 35 34 32 32 30 27 25 25 24 23 22 21 20 19 19 19 19 19 17 17 18 17
18 18 18 18 18 19 19 20 22 23 24 25 25 27 30 32 33 32 32 34 35 34 32 32 32 29 26 24 25 26 23 21 21 20 20 20 20 19 18 18 18 17
18 18 19 19 20 20 21 22 22 23 24 26 27 29 31 33 35 34 32 33 34 35 34 32 30 28 26 25 26 26 24 22 20 20 19 19 19 19 19 18 18 18
18 19 19 20 21 21 21 22 23 24 26 28 29 31 34 36 38 37 34 34 36 36 36 33 29 27 26 26 26 26 24 21 19 19 19 19 19 19 19 19 19 19
18 19 19 20 20 21 21 22 23 25 27 29 30 32 35 38 41 40 36 35 35 34 33 31 27 26 25 24 26 27 25 22 19 19 19 19 19 20 20 20 20 20
19 20 20 20 20 20 21 21 23 25 27 29 31 32 34 38 41 40 35 32 31 29 28 27 25 25 25 23 26 28 25 21 19 18 19 19 19 19 20 20 21 21
19 20 21 20 20 20 20 21 22 24 26 28 30 31 33 37 40 37 32 30 29 26 26 25 22 22 23 23 25 28 25 22 20 19 19 18 19 19 19 20 21 20
20 21 21 21 21 21 21 22 23 25 27 28 29 30 33 38 39 32 28 28 27 25 25 23 21 21 22 22 24 26 25 22 21 20 19 18 19 19 19 20 20 20
21 22 22 22 21 22 22 23 24 25 26 27 28 30 31 36 37 28 23 25 27 26 25 22 21 22 23 23 24 26 25 23 22 21 19 18 19 19 19 20 20 21
22 23 23 22 22 23 23 24 23 24 25 25 27 29 29 34 35 25 21 23 25 24 24 23 21 22 23 23 26 27 26 24 23 21 19 18 19 19 19 19 20 20
23 23 23 23 23 23 23 23 23 23 23 25 27 28 28 31 31 22 19 23 24 23 23 23 22 21 22 24 25 25 24 22 21 19 18 18 18 18 19 19 19 20
24 24 24 23 23 23 22 23 22 22 23 24 26 27 27 28 27 18 16 21 22 22 22 23 23 23 23 24 24 23 22 20 18 16 15 16 17 18 18 19 19 20
24 24 24 23 22 21 21 21 22 22 22 23 25 26 26 26 26 18 15 18 16 19 21 22 22 23 23 23 22 22 22 19 16 15 15 16 16 17 18 19 20 20
24 24 24 23 22 21 20 20 20 21 21 22 24 26 26 26 26 20 17 17 13 13 18 19 19 20 20 20 19 19 19 19 17 15 16 16 16 17 18 19 19 20
23 23 23 23 22 21 20 20 20 20 20 21 23 25 26 26 24 20 17 19 16 13 14 15 15 16 17 18 18 19 19 19 17 16 15 16 17 17 17 18 18 20
23 23 23 23 23 23 22 21 21 20 20 20 21 23 24 25 24 19 17 17 18 18 18 16 13 13 16 18 18 20 22 20 17 16 16 16 17 16 17 18 19 20
23 23 24 24 24 25 24 23 22 21 20 20 20 21 22 23 24 22 18 16 17 20 22 21 18 16 17 17 17 20 22 21 19 19 18 18 17 16 17 19 19 19
22 22 23 24 24 25 25 24 24 23 21 21 20 21 22 22 23 24 23 20 18 19 20 21 21 22 21 19 19 20 22 22 21 22 21 20 20 19 19 19 19 20
20 20 21 22 22 23 23 24 24 23 22 21 20 20 21 22 22 23 25 25 24 21 21 19 19 21 23 24 23 22 23 24 24 24 23 21 21 21 21 21 21 21
17 17 18 18 19 20 21 21 22 22 23 22 21 20 20 21 21 21 23 27 28 28 27 25 22 22 24 26 26 26 26 26 26 26 25 23 22 22 23 22 22 22
16 16 16 16 17 17 18 19 20 20 21 22 21 20 20 21 21 20 21 24 27 30 30 30 29 28 27 27 27 27 28 28 28 28 27 26 24 23 24 23 21 20
17 17 17 17 17 17 17 17 18 19 19 19 20 20 19 20 21 21 20 20 22 26 29 30 31 32 32 30 28 28 29 30 30 29 29 28 27 26 26 25 21 20
19 19 19 19 19 18 17 17 17 17 18 18 18 18 18 19 20 21 22 21 20 22 25 27 29 31 33 34 33 32 31 31 32 32 31 31 30 29 29 28 24 21
19 20 20 20 20 19 19 18 17 17 17 17 17 17 17 17 18 19 21 21 21 22 23 25 27 28 30 31 33 35 34 33 33 34 34 34 33 32 32 30 26 24

ECMWFNIL_700_spd_069.txt.gz
Wind_Speed
18 17 16 15 15 14 14 14 14 14 15 15 16 17 17 18 18 19 19 20 21 23 24 26 28 30 31 33 34 35 33 29 28 29 30 30 29 28 26 23 24 24
18 18 17 17 16 16 16 16 16 16 16 17 18 19 19 19 20 20 21 21 22 24 26 27 29 31 33 36 38 38 34 28 27 29 30 29 27 25 23 21 22 24
18 18 18 18 18 18 18 17 17 17 17 18 20 20 21 21 20 21 22 23 24 26 26 28 30 32 35 39 41 39 34 27 27 29 29 28 26 25 23 22 21 23
18 19 19 19 20 20 19 18 18 18 18 19 20 21 21 21 22 23 24 25 26 27 27 29 30 32 35 39 40 37 31 26 26 28 27 26 26 25 24 23 22 23
19 20 20 21 21 20 19 19 19 19 19 20 20 21 22 22 23 24 25 26 27 27 28 29 31 33 35 37 36 32 27 25 23 24 25 25 26 26 24 22 22 23
19 20 21 21 21 20 20 20 20 20 21 21 22 22 23 24 24 25 25 26 27 28 29 30 31 33 34 34 32 28 25 24 21 21 24 25 26 25 23 22 22 23
19 20 20 21 21 21 21 21 21 22 22 23 23 24 24 25 25 25 25 26 27 28 29 30 31 32 32 32 30 27 24 22 20 19 21 24 24 23 22 22 22 24
19 20 20 21 21 21 22 22 23 23 23 24 25 25 26 26 26 25 25 26 27 28 29 29 30 31 31 31 29 26 24 22 20 19 19 21 21 21 22 22 22 24
20 20 21 22 22 23 23 24 25 26 26 26 26 26 26 26 26 25 25 26 27 28 30 29 29 30 31 31 30 27 25 23 21 19 19 19 19 20 21 22 22 23
21 23 23 24 25 26 26 27 27 27 27 26 26 25 25 25 25 25 25 25 26 28 29 30 30 30 30 31 30 27 24 23 20 18 19 19 19 20 21 22 21 22
23 24 25 25 26 26 27 27 27 27 27 26 25 25 24 24 24 24 24 25 26 27 28 29 30 29 29 29 29 25 23 21 20 18 18 18 18 19 20 21 21 21
22 23 24 25 25 26 26 26 26 27 27 26 25 25 25 24 24 24 24 25 26 27 28 29 29 29 28 28 27 25 22 20 20 19 17 17 18 18 19 20 20 21
22 23 24 25 26 27 27 27 27 27 27 27 26 26 26 25 25 25 25 25 26 28 29 29 28 28 26 26 25 24 23 20 20 21 19 18 18 17 17 18 18 19
23 24 25 26 27 28 28 28 28 28 28 28 27 27 27 26 26 26 26 26 27 28 29 29 28 27 25 23 22 22 22 21 19 19 18 17 18 17 17 17 17 18
23 24 25 26 26 27 27 27 27 27 27 27 27 27 27 27 27 27 27 27 27 28 29 29 27 27 25 22 20 20 20 20 18 17 17 17 17 18 18 18 17 19
23 23 23 24 24 25 25 25 25 25 25 25 25 25 25 25 25 25 25 26 27 27 29 29 27 26 25 23 20 19 19 19 18 17 17 18 17 17 18 18 18 19
21 21 21 22 22 23 23 24 24 24 24 24 24 24 24 23 23 23 23 24 25 26 28 28 27 25 24 23 21 18 17 17 17 16 17 18 18 18 18 19 19 19
21 21 21 22 23 23 24 24 25 25 25 25 25 25 25 24 24 23 22 23 24 25 27 28 27 26 25 23 21 18 17 17 16 15 16 17 18 19 20 19 18 18
21 22 22 23 23 24 24 25 26 26 26 26 26 26 26 25 25 24 22 22 23 24 25 26 26 25 25 24 21 19 18 18 17 16 16 18 19 21 21 21 19 17
21 21 21 22 22 23 24 24 25 26 26 26 26 27 27 26 25 24 24 23 22 23 25 25 25 24 24 24 23 21 20 20 20 19 18 18 20 21 22 22 20 18
19 19 20 20 21 22 23 23 24 25 26 26 25 26 27 27 26 25 24 23 22 23 24 26 26 24 23 22 22 21 21 21 22 22 21 20 20 21 22 23 22 22
17 18 19 19 20 21 22 23 24 24 25 25 25 25 25 26 26 25 25 24 23 22 23 25 26 26 24 23 21 20 21 21 22 23 24 23 22 22 22 22 23 24
17 18 18 19 19 20 21 22 23 24 24 25 25 25 25 25 25 25 25 25 23 23 22 23 25 25 25 24 23 21 20 19 21 22 24 26 26 25 25 23 23 24
18 18 19 20 20 21 22 23 23 24 24 25 25 26 26 26 25 25 25 26 25 24 23 23 24 24 24 24 24 23 21 19 19 20 22 25 27 28 28 27 25 25
18 19 20 20 21 22 23 24 24 24 25 25 25 26 26 26 26 25 25 25 25 25 24 23 23 24 23 23 22 23 22 21 19 19 20 22 25 27 28 30 30 29
19 20 21 21 22 23 23 24 24 24 25 25 25 26 26 26 27 27 26 25 24 25 25 24 24 23 23 23 22 21 22 21 20 19 19 20 21 24 26 29 32 34

ECMWFNIL_700_spd_072.txt.gz
Wind_Speed
12 12 11 12 12 12 12 13 13 14 15 16 17 17 17 18 18 18 18 19 19 19 20 22 25 26 27 28 29 30 31 33 34 34 34 33 32 31 31 31 30 30
12 12 12 12 12 13 14 14 15 16 16 17 17 17 17 18 18 18 19 19 19 20 22 24 26 27 28 28 29 30 31 33 33 33 32 31 29 29 30 31 30 30
13 13 13 13 14 15 15 16 16 16 17 17 17 18 18 19 19 19 20 20 20 22 24 25 26 27 28 28 29 30 31 33 33 32 31 28 27 27 27 29 29 29
14 14 15 15 15 16 16 16 16 16 17 18 18 19 19 20 20 21 21 22 22 24 25 26 27 27 28 29 29 30 31 33 34 33 30 27 26 26 26 26 27 27
15 15 16 16 17 17 17 17 17 17 18 18 19 20 20 21 22 23 24 24 25 25 26 26 27 28 28 29 30 30 31 32 33 33 31 28 25 24 24 25 26 26
16 16 17 18 18 18 19 18 18 19 19 20 21 22 23 24 25 26 27 27 27 27 26 26 27 28 29 29 30 30 31 33 32 32 31 28 25 23 23 23 24 25
16 16 17 18 19 20 21 21 21 21 22 23 24 25 25 26 27 28 28 28 27 27 26 26 27 28 29 30 30 30 31 32 32 32 30 27 24 22 22 22 23 24
15 16 17 19 21 22 22 23 24 24 25 26 26 26 27 27 27 27 27 27 27 27 26 26 27 29 30 31 31 30 30 31 31 31 30 27 23 21 20 20 20 21
16 16 18 20 21 22 23 24 24 25 26 26 27 27 27 28 28 27 27 27 27 27 27 27 28 29 30 31 32 32 31 30 30 30 28 26 23 21 20 19 20 19
17 18 18 20 22 23 23 24 25 26 26 27 28 29 29 29 29 28 28 27 28 28 27 28 28 29 31 32 33 33 32 30 30 28 27 25 21 20 20 19 19 20
19 19 20 21 22 24 24 25 26 27 28 28 29 29 29 29 29 29 29 28 28 28 28 28 29 30 31 32 33 33 32 30 29 28 27 24 19 18 19 19 19 20
20 21 22 22 23 24 25 26 27 28 29 29 29 29 28 28 29 29 29 29 29 29 29 29 29 30 31 32 33 32 31 30 28 27 26 24 19 17 19 20 20 20
21 22 22 23 24 25 25 27 27 28 28 28 28 27 27 27 27 28 28 29 29 29 29 28 28 29 30 32 32 32 30 28 27 26 25 24 20 17 19 21 21 21
21 21 22 22 23 23 24 24 25 25 26 26 26 26 25 25 26 26 26 27 28 28 28 28 28 28 29 30 30 30 29 28 27 26 24 22 20 17 18 21 22 21
19 20 20 20 21 21 22 22 23 24 25 25 26 26 26 26 26 26 26 26 27 27 27 28 28 29 29 29 29 28 26 26 27 27 24 22 19 16 17 20 22 22
17 17 18 19 20 21 22 23 24 24 25 26 26 26 27 27 27 27 27 27 27 27 27 27 27 28 29 30 30 28 26 25 26 27 25 22 19 16 17 20 22 23
16 17 18 19 20 21 21 22 23 23 24 26 27 27 27 27 27 27 27 28 28 27 27 27 26 27 28 29 30 30 28 26 25 26 25 22 19 17 18 20 21 22
15 16 17 18 18 19 20 20 21 22 23 24 26 27 27 28 27 27 27 28 28 28 28 28 27 27 28 29 30 30 29 27 26 26 25 23 20 19 19 20 21 22
14 15 16 17 17 18 19 20 21 21 22 23 25 26 27 28 28 28 28 28 28 27 27 28 28 28 28 28 29 29 29 27 26 26 26 25 23 21 21 21 21 22
13 14 15 16 17 18 20 21 21 22 23 24 25 26 27 28 29 30 30 29 29 28 28 27 27 28 28 29 29 29 29 28 26 25 26 26 25 24 24 23 22 23
12 13 15 16 17 19 20 21 22 23 24 25 26 27 28 29 30 30 31 31 30 30 29 28 27 27 28 29 30 30 29 28 27 26 25 26 27 26 26 25 25 24
12 13 14 16 17 19 20 21 22 23 24 25 26 27 28 29 30 30 31 32 32 31 31 30 29 28 27 27 29 30 29 28 27 26 25 25 26 27 27 28 28 27
12 14 15 16 17 18 19 21 22 23 24 25 26 27 28 29 30 31 32 32 32 32 31 31 31 30 28 27 27 29 29 28 27 26 26 25 25 26 27 28 30 30
13 15 16 17 18 19 20 21 22 23 25 26 27 29 30 31 31 32 33 34 34 33 32 31 30 31 30 29 28 27 28 28 27 26 26 25 25 25 26 27 29 30
14 15 16 17 18 19 21 22 24 25 26 27 28 29 30 31 31 32 32 33 34 34 34 32 31 30 30 30 29 28 27 27 26 25 25 25 24 24 25 26 27 29
14 15 16 17 19 20 22 24 25 26 28 28 29 30 31 31 31 31 31 32 32 33 34 33 33 32 31 30 29 29 28 27 26 25 24 24 24 24 24 24 25 27